Dewpoint
-21 -24 -23 -21 -19 -17 -14 -11 -8 -7 -10 -15 -14 -13 -16 -18 -16 -15 -17 -18 -18 -19 -21 -23 -24 -24 -24 -24 -15 -4 1 4 5 6 6 6 7 8
-17 -23 -22 -20 -19 -17 -15 -12 -9 -7 -6 -11 -13 -12 -12 -13 -13 -13 -13 -13 -14 -12 -8 -16 -20 -23 -23 -24 -25 -25 -19 -7 1 4 5 6 6 6
-14 -20 -22 -21 -19 -17 -16 -13 -11 -9 -9 -14 -13 -12 -14 -14 -14 -12 -12 -12 -11 -11 -8 -7 -12 -16 -18 -16 -19 -24 -26 -27 -23 -11 1 4 5 6
-11 -17 -21 -20 -19 -18 -17 -16 -14 -12 -10 -12 -13 -13 -13 -14 -12 -12 -11 -11 -11 -11 -12 -9 -10 -11 -14 -17 -17 -19 -22 -23 -25 -26 -26 -23 -10 2
-9 -15 -19 -18 -17 -17 -16 -15 -14 -15 -14 -12 -12 -14 -14 -14 -13 -12 -12 -11 -11 -12 -12 -11 -10 -15 -15 -15 -17 -18 -19 -21 -22 -23 -24 -25 -25 -24
-8 -12 -17 -17 -15 -15 -16 -15 -16 -16 -15 -14 -14 -14 -13 -11 -11 -12 -12 -11 -12 -12 -10 -12 -15 -15 -13 -15 -16 -19 -20 -20 -21 -22 -23 -24 -24 -25
-7 -10 -15 -17 -16 -15 -17 -18 -17 -17 -16 -13 -11 -9 -8 -8 -9 -9 -9 -9 -12 -13 -15 -16 -17 -18 -17 -18 -19 -20 -21 -23 -23 -24 -24 -24 -25 -25
-7 -8 -7 -17 -18 -15 -15 -14 -16 -16 -15 -11 -10 -7 -8 -7 -8 -8 -7 -8 -9 -12 -13 -20 -17 -18 -18 -17 -17 -18 -19 -21 -22 -23 -23 -26 -25 -25
-7 -7 -1 -11 -19 -15 -15 -15 -14 -11 -8 -11 -8 -8 -8 -8 -7 -7 -7 -7 -8 -10 -10 -18 -18 -19 -18 -17 -19 -20 -19 -16 -18 -19 -21 -22 -23 -25
-6 -7 -1 -8 -19 -15 -15 -16 -17 -15 -12 -11 -10 -9 -8 -7 -6 -6 -6 -7 -8 -10 -10 -13 -16 -17 -18 -18 -19 -18 -15 -16 -18 -19 -19 -21 -23 -24
-5 -7 -2 -4 -18 -16 -14 -17 -17 -16 -12 -10 -9 -8 -6 -6 -7 -8 -11 -9 -8 -12 -13 -11 -13 -14 -15 -17 -17 -18 -19 -17 -18 -19 -19 -20 -20 -23
-6 -8 -3 -2 -15 -16 -15 -16 -16 -16 -10 -10 -9 -8 -7 -7 -8 -11 -9 -9 -9 -10 -12 -10 -11 -11 -11 -14 -16 -17 -15 -15 -16 -16 -17 -18 -19 -21
-6 -7 -4 -4 -17 -16 -16 -15 -16 -9 -9 -8 -7 -6 -7 -7 -9 -12 -12 -11 -10 -10 -10 -9 -9 -10 -9 -10 -11 -12 -12 -12 -14 -15 -15 -16 -17 -18
-4 -4 -3 -4 -16 -16 -14 -14 -9 -6 -7 -6 -6 -7 -7 -8 -11 -12 -12 -11 -10 -10 -10 -9 -9 -9 -9 -10 -10 -11 -11 -11 -11 -12 -14 -15 -15 -15
-4 -4 -3 -12 -17 -16 -15 -15 -7 -7 -6 -7 -8 -7 -8 -11 -11 -10 -11 -10 -10 -10 -10 -9 -9 -9 -9 -9 -10 -10 -10 -11 -11 -11 -11 -11 -12 -14
-4 -4 -5 -8 -14 -15 -16 -13 -7 -8 -8 -9 -9 -8 -10 -10 -9 -9 -9 -9 -10 -10 -10 -9 -9 -9 -10 -10 -10 -10 -10 -10 -11 -11 -11 -11 -12 -12
-4 -5 -6 -6 -12 -15 -14 -8 -9 -10 -10 -10 -8 -9 -10 -9 -9 -10 -10 -10 -9 -10 -10 -10 -10 -9 -9 -10 -10 -10 -11 -11 -11 -11 -11 -11 -11 -11
-5 -5 -6 -10 -14 -13 -12 -8 -12 -10 -12 -10 -8 -9 -10 -9 -10 -10 -10 -10 -10 -9 -10 -10 -10 -10 -10 -11 -11 -11 -11 -10 -10 -10 -11 -11 -11 -12
-6 -6 -8 -11 -15 -15 -11 -10 -13 -12 -11 -10 -9 -10 -10 -10 -10 -10 -10 -10 -9 -9 -10 -10 -10 -10 -9 -9 -11 -10 -10 -10 -10 -11 -11 -11 -10 -11
-6 -6 -7 -8 -15 -15 -10 -11 -13 -13 -12 -11 -11 -11 -10 -10 -10 -10 -10 -10 -9 -9 -10 -10 -10 -9 -9 -9 -9 -11 -11 -11 -10 -10 -10 -10 -10 -10
-6 -6 -6 -7 -11 -13 -9 -13 -15 -14 -13 -12 -12 -11 -10 -10 -10 -11 -11 -10 -10 -10 -9 -9 -9 -9 -9 -10 -10 -10 -11 -10 -9 -9 -9 -9 -9 -10
-6 -6 -6 -6 -11 -11 -11 -14 -15 -14 -15 -13 -12 -11 -10 -9 -10 -11 -10 -9 -9 -9 -9 -9 -10 -10 -10 -9 -9 -10 -11 -11 -11 -9 -9 -9 -9 -10
-6 -5 -6 -7 -10 -10 -12 -15 -16 -16 -15 -13 -12 -11 -10 -10 -9 -9 -9 -9 -9 -9 -9 -9 -10 -10 -10 -9 -9 -9 -10 -10 -10 -10 -11 -11 -10 -10
Wind_Speed
17 17 16 15 15 14 14 13 13 9 17 15 14 20 21 18 19 18 17 17 17 16 15 16 15 14 13 13 11 10 9 7 9 10 12 13 14 22
19 18 17 16 16 15 14 14 14 15 16 18 21 21 21 18 17 17 17 16 17 16 15 14 14 12 13 14 11 9 9 8 7 13 11 13 14 12
20 19 18 18 17 16 16 15 15 16 22 24 21 19 20 21 19 17 17 15 15 16 15 12 11 11 11 13 13 10 9 7 8 10 13 15 15 13
22 21 20 19 19 18 18 17 17 17 21 24 23 21 20 18 19 18 18 16 15 17 16 13 12 11 12 12 13 13 9 11 10 10 9 11 13 17
24 23 22 21 21 19 19 19 18 19 20 23 24 22 22 19 20 19 18 19 18 18 16 15 14 15 11 12 13 14 12 10 12 12 12 11 12 11
26 25 24 23 21 20 20 19 20 20 20 21 23 22 22 18 19 20 21 19 17 15 10 13 15 13 11 10 9 11 11 10 10 13 14 14 13 11
28 27 26 24 23 23 22 20 20 19 20 20 21 21 21 18 16 18 22 23 20 16 14 11 14 11 12 12 13 10 8 9 11 14 14 14 16 15
31 28 27 26 25 23 23 22 21 20 19 19 21 21 20 18 19 21 20 20 23 13 20 13 14 11 11 8 8 10 12 11 10 11 13 14 16 16
32 31 30 26 25 25 24 22 22 21 20 21 22 23 23 21 19 18 17 18 20 20 23 20 16 12 9 12 16 14 11 7 7 8 12 14 16 18
33 32 31 25 25 25 24 23 22 22 22 20 22 22 20 18 17 19 20 22 21 20 18 24 19 14 14 16 13 10 6 7 13 20 18 16 16 18
34 35 33 27 24 25 25 24 22 22 19 18 19 18 17 19 22 22 22 19 20 20 19 18 13 23 21 11 9 11 5 16 22 21 21 21 21 20
35 37 32 31 23 24 24 23 22 20 17 18 18 18 19 20 19 18 17 18 17 16 10 15 21 22 13 10 3 8 20 18 17 19 20 21 22 24
34 34 32 23 24 23 22 22 20 17 19 18 18 20 21 20 19 17 17 17 17 18 18 19 23 23 19 22 25 21 19 19 18 16 18 20 20 19
32 32 31 22 22 23 22 21 20 20 19 22 23 25 22 20 18 17 17 18 19 21 19 19 22 21 21 26 30 27 26 23 22 20 16 12 15 20
27 28 24 19 21 22 21 19 18 18 22 26 25 22 20 18 17 18 19 21 21 19 19 18 20 21 22 26 30 29 29 25 22 15 22 22 22 21
27 28 23 20 21 21 20 19 20 20 23 24 23 19 18 17 18 18 16 17 18 16 14 14 15 17 20 22 25 29 26 26 25 24 25 25 23 22
27 26 23 23 22 22 20 19 17 21 23 23 20 18 18 18 18 16 17 18 18 17 15 13 14 16 19 22 28 29 27 27 25 23 25 26 26 24
28 26 26 25 26 24 20 18 19 21 20 19 19 19 20 20 20 18 17 16 18 17 17 16 17 19 22 25 26 25 24 27 25 23 26 29 31 27
23 27 24 24 28 24 22 20 20 18 17 18 19 20 20 21 18 17 18 18 18 16 18 18 17 20 25 29 30 26 23 26 29 31 29 31 33 31
26 29 25 24 26 23 21 19 19 17 18 17 18 19 19 18 18 18 17 18 17 18 19 18 19 20 24 27 29 34 30 30 29 31 32 32 32 32
28 29 23 23 23 21 19 18 18 18 18 18 18 20 17 16 18 17 17 16 17 20 23 23 21 22 23 26 32 35 32 28 27 27 29 33 34 35
27 30 25 23 21 20 19 18 19 18 18 18 18 18 17 17 16 17 17 17 18 20 22 24 23 22 23 25 30 33 32 29 27 28 28 29 32 34
31 27 24 20 18 18 18 19 19 18 18 17 18 18 16 16 16 15 16 17 18 20 23 25 25 25 26 28 30 32 33 32 31 32 32 28 28 28
Wind_Direction
303 297 291 285 282 280 280 285 291 297 305 305 306 310 316 321 322 327 325 322 327 330 325 323 327 333 333 332 326 306 294 289 273 284 280 287 280 265
294 291 287 283 280 278 277 277 276 277 277 292 303 309 315 317 314 316 317 324 325 337 339 334 333 336 336 337 342 329 318 304 280 269 281 279 279 278
288 287 284 281 278 275 273 272 271 269 274 289 297 304 307 309 308 304 304 313 319 325 333 339 340 340 340 337 341 346 337 324 310 293 281 276 280 272
285 283 284 279 275 273 274 272 271 271 275 287 295 301 304 306 307 308 305 308 312 315 314 312 321 335 335 325 330 334 344 339 327 320 310 301 290 277
280 281 282 276 275 274 274 273 274 275 276 282 289 296 299 301 298 298 300 303 310 308 300 300 317 325 325 318 317 323 336 327 324 319 318 322 322 304
276 277 278 275 276 275 273 273 275 277 276 278 284 290 294 299 299 301 297 301 309 317 294 299 321 315 316 321 313 317 321 318 316 312 321 320 315 320
271 272 274 273 273 273 272 272 275 273 275 278 282 289 289 296 303 302 303 307 307 308 298 296 306 304 303 309 312 309 303 313 316 308 311 311 312 315
268 266 269 270 270 272 273 276 277 274 274 276 281 284 291 295 303 302 306 317 324 312 309 309 320 316 312 319 317 306 307 310 301 299 304 305 310 311
266 261 265 265 267 267 267 268 266 267 264 277 276 280 289 294 295 298 300 308 307 311 313 309 323 313 312 316 311 308 299 298 307 320 319 312 306 303
265 259 264 260 263 263 265 266 267 266 267 272 274 278 277 285 287 289 291 295 297 302 309 309 317 310 312 314 304 300 300 297 312 316 317 309 302 302
264 257 264 253 258 259 262 265 267 268 272 277 276 271 269 269 278 282 284 280 285 298 305 302 310 315 317 308 276 270 280 310 306 306 307 307 307 304
260 257 264 253 250 254 258 261 264 272 272 275 275 271 272 279 282 277 275 276 285 299 299 303 309 320 320 314 225 259 293 296 296 300 298 294 295 298
259 260 265 246 252 254 254 257 265 275 273 279 284 284 283 284 283 272 270 271 275 277 283 288 295 302 300 297 301 307 309 309 306 300 296 292 291 290
261 258 261 235 244 247 246 252 259 265 270 274 276 279 283 282 277 268 270 272 275 279 283 284 284 289 291 294 296 309 308 311 308 305 302 290 290 290
259 261 245 238 243 245 245 251 252 256 260 271 275 278 281 279 274 274 273 274 276 276 280 279 280 283 280 281 289 299 304 310 307 305 304 297 294 288
254 254 228 235 242 245 245 243 257 260 266 269 275 273 272 275 278 279 280 285 285 283 280 285 287 287 287 287 291 293 302 298 304 303 303 297 292 290
249 235 235 244 240 239 241 256 258 261 265 269 266 267 271 275 278 278 281 289 289 294 295 297 301 297 293 294 291 297 303 299 302 305 300 298 294 293
229 226 232 240 241 240 246 253 256 262 266 263 257 267 271 272 275 276 284 286 290 297 300 306 307 303 300 296 297 302 301 302 304 303 300 299 298 294
224 229 233 235 243 245 247 256 260 265 264 259 263 270 272 270 269 276 283 285 290 296 299 304 305 308 307 303 305 304 300 306 306 304 302 297 297 297
235 232 229 233 246 243 248 257 260 261 260 263 266 268 273 268 272 278 283 287 293 297 299 304 310 313 303 301 303 299 300 302 302 300 299 299 297 296
234 235 237 235 248 250 252 256 258 257 260 263 265 269 266 266 272 279 283 285 291 294 299 306 314 309 304 301 293 299 304 305 302 298 299 297 298 298
249 243 244 243 253 252 255 256 256 255 260 262 262 268 265 267 272 278 283 291 295 298 303 308 312 310 304 301 301 305 307 306 306 304 298 288 283 280
252 253 245 245 251 251 252 250 253 259 262 260 260 264 263 268 275 282 287 293 297 304 310 312 313 314 310 307 305 305 307 308 309 306 299 297 294 286
Height
1479 1477 1475 1472 1471 1470 1469 1468 1467 1464 1459 1457 1455 1454 1451 1448 1445 1442 1439 1435 1433 1430 1427 1424 1421 1418 1415 1411 1410 1408 1408 1404 1406 1406 1405 1397 1399 1400
1474 1472 1471 1469 1467 1466 1465 1464 1463 1462 1459 1455 1452 1448 1447 1446 1443 1440 1437 1434 1430 1428 1424 1421 1418 1416 1412 1410 1409 1408 1404 1401 1400 1403 1396 1399 1398 1396
1470 1468 1466 1464 1463 1462 1460 1458 1457 1457 1454 1451 1449 1446 1442 1441 1439 1437 1434 1431 1429 1425 1423 1420 1417 1414 1412 1409 1407 1404 1402 1401 1400 1399 1397 1395 1396 1395
1465 1464 1462 1460 1458 1457 1456 1454 1452 1451 1450 1447 1445 1444 1441 1437 1434 1432 1430 1428 1425 1423 1420 1417 1415 1413 1411 1409 1406 1403 1401 1398 1398 1396 1396 1395 1396 1394
1460 1458 1458 1456 1455 1453 1452 1451 1449 1447 1446 1444 1441 1439 1437 1434 1431 1429 1426 1424 1422 1419 1416 1414 1412 1410 1407 1405 1403 1401 1399 1399 1396 1396 1394 1392 1393 1389
1454 1452 1451 1451 1450 1449 1447 1446 1444 1442 1441 1439 1438 1435 1433 1431 1427 1425 1422 1420 1417 1415 1413 1411 1409 1406 1404 1402 1401 1399 1397 1397 1395 1392 1389 1388 1388 1383
1445 1444 1443 1443 1442 1442 1441 1440 1439 1437 1436 1435 1433 1431 1430 1427 1423 1422 1418 1415 1412 1410 1409 1408 1406 1403 1401 1399 1397 1395 1394 1392 1390 1387 1386 1384 1383 1380
1437 1436 1436 1436 1435 1435 1435 1435 1433 1432 1431 1429 1428 1426 1425 1423 1420 1418 1415 1410 1407 1408 1404 1403 1401 1399 1397 1396 1394 1393 1391 1389 1388 1387 1386 1383 1381 1378
1428 1428 1428 1428 1427 1428 1429 1428 1427 1427 1426 1425 1422 1421 1420 1419 1417 1415 1413 1409 1407 1405 1401 1396 1396 1395 1394 1392 1389 1388 1387 1386 1385 1383 1381 1379 1377 1377
1418 1420 1420 1421 1421 1421 1422 1420 1420 1420 1420 1419 1418 1417 1416 1415 1413 1411 1409 1406 1404 1402 1400 1394 1392 1390 1390 1388 1386 1384 1383 1381 1380 1378 1378 1378 1377 1373
1407 1409 1411 1411 1413 1414 1414 1413 1413 1413 1414 1414 1413 1412 1412 1410 1409 1406 1404 1403 1401 1398 1396 1393 1390 1386 1385 1384 1383 1382 1382 1380 1377 1374 1371 1368 1367 1368
1398 1400 1402 1401 1404 1406 1406 1406 1405 1407 1408 1408 1408 1407 1406 1405 1403 1401 1400 1399 1398 1396 1394 1392 1388 1387 1383 1380 1380 1381 1380 1378 1375 1373 1371 1369 1367 1366
1389 1392 1393 1394 1396 1398 1399 1399 1399 1402 1402 1402 1402 1401 1400 1399 1397 1396 1394 1394 1393 1392 1392 1390 1386 1385 1383 1377 1373 1374 1373 1372 1370 1369 1367 1364 1362 1360
1380 1382 1384 1385 1388 1391 1392 1393 1394 1396 1396 1396 1396 1395 1394 1393 1391 1390 1389 1388 1387 1386 1386 1385 1381 1381 1378 1374 1370 1368 1366 1365 1364 1362 1360 1360 1358 1356
1371 1374 1376 1379 1381 1383 1385 1386 1388 1389 1390 1390 1388 1388 1389 1387 1386 1384 1383 1382 1381 1380 1380 1379 1377 1375 1373 1369 1366 1363 1361 1359 1357 1355 1355 1353 1352 1351
1363 1366 1368 1371 1373 1376 1378 1379 1381 1382 1383 1383 1382 1383 1382 1382 1380 1379 1377 1376 1375 1374 1374 1373 1371 1368 1365 1363 1361 1357 1357 1355 1354 1351 1348 1345 1344 1343
1357 1359 1362 1364 1366 1368 1370 1373 1374 1375 1376 1376 1376 1377 1377 1376 1375 1374 1373 1371 1369 1367 1367 1366 1365 1362 1359 1357 1353 1351 1350 1347 1346 1344 1341 1338 1337 1336
1349 1351 1354 1357 1359 1362 1365 1366 1367 1369 1369 1369 1370 1371 1370 1371 1370 1369 1368 1366 1364 1362 1361 1360 1359 1356 1352 1350 1347 1344 1343 1340 1339 1337 1334 1330 1327 1328
1341 1343 1347 1350 1352 1355 1358 1359 1361 1362 1363 1362 1364 1364 1364 1364 1364 1363 1362 1361 1358 1357 1356 1355 1353 1351 1347 1343 1340 1339 1334 1334 1331 1328 1327 1324 1320 1319
1335 1336 1339 1342 1345 1349 1352 1353 1354 1355 1356 1357 1357 1358 1358 1358 1358 1357 1356 1355 1353 1352 1350 1350 1349 1347 1343 1339 1334 1329 1330 1328 1326 1321 1317 1315 1312 1310
1329 1330 1333 1336 1339 1343 1345 1347 1348 1349 1350 1350 1351 1351 1352 1352 1352 1351 1351 1350 1349 1347 1344 1343 1343 1341 1337 1333 1327 1322 1321 1320 1318 1315 1311 1306 1303 1299
1323 1325 1328 1330 1333 1336 1339 1340 1342 1342 1343 1344 1345 1345 1346 1346 1346 1346 1345 1344 1344 1342 1339 1337 1335 1333 1330 1326 1321 1316 1312 1310 1309 1307 1304 1301 1298 1292
1316 1319 1323 1326 1328 1331 1332 1334 1335 1336 1337 1338 1339 1339 1340 1340 1340 1340 1340 1339 1338 1336 1334 1331 1329 1326 1322 1319 1315 1310 1306 1303 1299 1295 1292 1291 1289 1285